Regional Weather Roundup
Issued by NWS

Home | Current Version | Previous Version | Text Only | Print | Product List | Glossary On
Versions: 1 2 3 4 5 6 7 8 9 10 11 12 13 14 15 16 17 18 19 20 21 22 23 24 25 26 27 28 29 30 31 32 33 34 35 36 37 38 39 40 41 42 43 44 45 46 47 48 49 50
000
ASUS43 KTOP 102308
RWRKS

WEATHER ROUNDUP FOR KANSAS
NATIONAL WEATHER SERVICE GOODLAND KS
500 PM CST WED FEB 10 2016

NOTE:  "FAIR" INDICATES FEW OR NO CLOUDS BELOW 12,000 FEET WITH NO
SIGNIFICANT WEATHER AND/OR OBSTRUCTIONS TO VISIBILITY.

KSZ001>006-013>018-027>032-041>047-110000-
NORTHWEST KANSAS

CITY           SKY/WX    TMP DP  RH WIND       PRES   REMARKS
GOODLAND       SUNNY     57  32  38 NW8       30.03R
HAYS           SUNNY     61  28  29 NW15      29.95R
HILL CITY      SUNNY     54  32  43 NW14      29.95S
RUSSELL        SUNNY     60  30  32 NW17      29.92R
$$

KSZ061>065-074>080-084>089-110000-
SOUTHWEST KANSAS

CITY           SKY/WX    TMP DP  RH WIND       PRES   REMARKS
DODGE CITY     SUNNY     70  18  13 N14       29.98R
ELKHART          N/A     77  19  11 NW12        N/A
GARDEN CITY    SUNNY     71  15  11 N20       29.99R
GREAT BEND     SUNNY     64  28  25 NW15      29.94R
LIBERAL        SUNNY     77  19  11 NW10      30.01S
PRATT          SUNNY     67  22  17 NW14      29.94R
$$

KSZ066>073-081>083-090>101-110000-
SOUTHEAST KANSAS

CITY           SKY/WX    TMP DP  RH WIND       PRES   REMARKS
CHANUTE        CLEAR     59  28  30 S9        29.91F
COFFEYVILLE    CLEAR     62  28  27 S12       29.92F
HUTCHINSON     SUNNY     68  29  23 W17       29.90R
MEDICINE LODGE   N/A     76  21  12 NW16G24   29.91R
NEWTON         SUNNY     66  34  30 NW12      29.91S
PARSONS        CLEAR     61  28  28 S7        29.92F
WICHITA INTL   SUNNY     71  32  23 SW7       29.88F
WICHITA JABRA  SUNNY     67  32  27 SW9       29.89S
WICHITA MCCONL SUNNY     68  34  28 SW7       29.89S
WINFIELD       SUNNY     68  36  30 SW5       29.90F
$$

KSZ007>012-019>026-033>040-048>060-102>105-110000-
NORTHEAST KANSAS

CITY           SKY/WX    TMP DP  RH WIND       PRES   REMARKS
CONCORDIA      CLEAR     54  30  40 NW13      29.90R
EMPORIA        CLEAR     63  29  27 SW10      29.87S
LAWRENCE       CLEAR     53  25  33 E7        29.90S
MANHATTAN      CLEAR     62  30  29 W7        29.87R
MARYSVILLE     CLEAR     52  34  50 N9        29.90R
OLATHE IND     CLEAR     50  24  36 S7        29.92R
OLATHE EXE     CLEAR     48  22  35 S7        29.92R
SALINA         SUNNY     65  30  27 NW15      29.90R
TOPEKA BILLARD CLEAR     59  28  30 NW7       29.88R
TOPEKA FORBES  CLEAR     60  28  29 W8        29.88R
$$



USA.gov is the U.S. government's official web portal to all federal, state and local government web resources and services.